St Augustine, FL 40NM ENE of St Augustine, FL (41012)

Conditions for Wednesday

Daily
Weekly
Monthly
Marine Data Graph
Ad Blocker Enabled

Marine & Boating Location Search

Enter a coastal zip code for marine weather.

General Information

Location: 30.042 North -80.534 West
Buoy Type: 3-meter discus buoy
Buoy Hull: 3DV13
Payload: AMPS payload
Owned by: NDBC
Windspeed: Measured by obtained from anemometer
Sea Surface: Measured by Intake
Note: See the notice on loss of funding from the Coastal Storms Program for this station:
http://www.nws.noaa.gov/om/notification/scn14-06buoy_staugustine_fl.htm
Station 41012 has been disestablished on 02/19/2014.


Weather and Wave Data

Time Temp Humidity Wind Dominant Wave Wind Wave Wave Swell Pressure
  Air
(°F)
Water
(°F)
  Dir Speed
(kts)
Speed
(mph)
Period
(sec)
Height
(ft)
Range
(ft)
Period
(sec)
Height
(ft)
Range
(ft)
Period
(sec)
Height
(ft)
Range
(ft)
Atmo.
(in)
Tend.
(in)
20:50 71 74 56 WSW 19.4 22.4 9 6.23 exactly 6.2 7 4.92 4.10 - 5.74 9 4.92 4.10 - 5.74 29.78 +0.05
21:50 70 74 59 WSW 19.4 22.4 9 6.23 exactly 6.2 5 4.92 4.10 - 5.74 9 3.28 2.46 - 4.10 29.81 +0.06
22:50 68 73 65 WSW 23.3 26.8 5 6.23 exactly 6.2 5 4.92 4.10 - 5.74 12 3.28 2.46 - 4.10 29.82 +0.06
23:50 67 73 67 WSW 21.4 24.6 5 5.58 exactly 5.6 5 4.92 4.10 - 5.74 8 1.64 0.82 - 2.46 29.83 +0.06
00:50 67 73 56 WSW 21.4 24.6 5 5.58 exactly 5.6 5 4.92 4.10 - 5.74 8 1.64 0.82 - 2.46 29.84 +0.04
01:50 65 73 61 West 23.3 26.8 5 6.23 exactly 6.2 5 6.56 5.74 - 7.38 11 1.64 0.82 - 2.46 29.85 +0.03
02:50 64 72 61 West 19.4 22.4 5 5.91 exactly 5.9 5 6.56 5.74 - 7.38 11 1.64 0.82 - 2.46 29.86 +0.03
03:50 63 72 60 West 19.4 22.4 6 5.58 exactly 5.6 6 4.92 4.10 - 5.74 9 1.64 0.82 - 2.46 29.87 +0.02
04:50 62 73 60 West 19.4 22.4 5 5.25 exactly 5.2 5 4.92 4.10 - 5.74 12 1.64 0.82 - 2.46 29.88 +0.03
05:50 62 73 56 West 15.6 17.9 5 5.25 exactly 5.2 5 4.92 4.10 - 5.74 8 1.64 0.82 - 2.46 29.89 +0.04
06:50 61 73 57 West 13.6 15.7 6 5.25 exactly 5.2 6 4.92 4.10 - 5.74 14 1.64 0.82 - 2.46 29.91 +0.05
07:50 61 73 55 WNW 13.6 15.7 6 4.59 exactly 4.6 6 4.92 4.10 - 5.74 15 1.64 0.82 - 2.46 29.93 +0.06
08:50 60 73 56 WNW 11.7 13.4 5 3.94 exactly 3.9 5 3.28 2.46 - 4.10 14 3.28 2.46 - 4.10 29.95 +0.06
09:50 60 72 52 WNW 13.6 15.7 5 3.94 exactly 3.9 5 3.28 2.46 - 4.10 14 1.64 0.82 - 2.46 29.96 +0.05
10:50 60 72 53 WNW 13.6 15.7 5 3.94 exactly 3.9 5 3.28 2.46 - 4.10 14 1.64 0.82 - 2.46 29.97 +0.04
11:50 59 72 56 WNW 11.7 13.4 5 3.61 exactly 3.6 5 3.28 2.46 - 4.10 14 1.64 0.82 - 2.46 29.98 +0.03
12:50 59 72 57 West 9.7 11.2 13 3.94 exactly 3.9 4 1.64 0.82 - 2.46 13 3.28 2.46 - 4.10 29.96 -0.01
13:50 60 73 52 West 9.7 11.2 14 3.61 exactly 3.6 4 1.64 0.82 - 2.46 14 3.28 2.46 - 4.10 29.94 -0.03
14:50 61 73 52 West 7.8 8.9 14 3.28 exactly 3.3 4 1.64 0.82 - 2.46 14 3.28 2.46 - 4.10 29.93 -0.04
15:50 62 73 47 West 9.7 11.2 14 2.95 exactly 3.0 4 1.64 0.82 - 2.46 14 3.28 2.46 - 4.10 29.91 -0.04
16:50 63 72 46 WSW 7.8 8.9 14 2.95 exactly 3.0 4 1.64 0.82 - 2.46 14 3.28 2.46 - 4.10 29.91 -0.03
17:50 64 72 45 West 9.7 11.2 13 2.62 exactly 2.6 4 1.64 0.82 - 2.46 13 1.64 0.82 - 2.46 29.91 -0.02
18:50 66 72 41 WSW 11.7 13.4 15 2.62 exactly 2.6 5 1.64 0.82 - 2.46 15 1.64 0.82 - 2.46 29.91 -
19:50 67 72 37 WSW 15.6 17.9 14 2.95 exactly 3.0 3 1.64 0.82 - 2.46 14 1.64 0.82 - 2.46 29.91 -
20:50 67 72 39 WSW 15.6 17.9 14 3.28 exactly 3.3 4 1.64 0.82 - 2.46 14 3.28 2.46 - 4.10 29.90 -
21:50 68 72 36 West 15.6 17.9 15 3.28 exactly 3.3 4 1.64 0.82 - 2.46 15 1.64 0.82 - 2.46 29.91 -
22:50 67 72 36 West 17.5 20.1 15 3.94 exactly 3.9 4 3.28 2.46 - 4.10 15 1.64 0.82 - 2.46 29.92 +0.01
23:50 64 72 48 NW 17.5 20.1 15 4.59 exactly 4.6 4 3.28 2.46 - 4.10 15 3.28 2.46 - 4.10 29.93 +0.03
00:50 64 72 37 WNW 15.6 17.9 15 4.59 exactly 4.6 4 3.28 2.46 - 4.10 15 3.28 2.46 - 4.10 29.92 +0.01
01:50 63 72 44 WNW 17.5 20.1 15 4.59 exactly 4.6 4 3.28 2.46 - 4.10 15 3.28 2.46 - 4.10 29.92 -
02:50 62 72 42 WNW 19.4 22.4 15 4.92 exactly 4.9 5 3.28 2.46 - 4.10 15 3.28 2.46 - 4.10 29.91 -0.02
03:50 62 72 43 WNW 17.5 20.1 5 5.25 exactly 5.2 5 4.92 4.10 - 5.74 14 1.64 0.82 - 2.46 29.91 -0.01

Detailed Wave Spectra

Time Water Depth Wave Height Spectral Peak Period Average Wave Period Sampling Interval Wave Record
20:00 125 ft 5.18 ft 7.1 sec 5.0 sec 0.6 sec 2400 sec
21:00 125 ft 6.17 ft 9.1 sec 5.4 sec 0.6 sec 2400 sec
22:00 125 ft 6.10 ft 9.1 sec 5.1 sec 0.6 sec 2400 sec
23:00 125 ft 6.23 ft 4.5 sec 4.8 sec 0.6 sec 2400 sec
00:00 125 ft 5.71 ft 5.0 sec 4.7 sec 0.6 sec 2400 sec
02:00 125 ft 6.36 ft 5.0 sec 4.7 sec 0.6 sec 2400 sec
03:00 125 ft 5.94 ft 5.0 sec 4.7 sec 0.6 sec 2400 sec
04:00 125 ft 5.71 ft 5.6 sec 4.9 sec 0.6 sec 2400 sec
05:00 125 ft 5.15 ft 5.3 sec 4.9 sec 0.6 sec 2400 sec
06:00 125 ft 5.31 ft 5.3 sec 5.0 sec 0.6 sec 2400 sec
07:00 125 ft 5.18 ft 5.9 sec 5.2 sec 0.6 sec 2400 sec
08:00 125 ft 4.76 ft 5.6 sec 5.1 sec 0.6 sec 2400 sec
09:00 125 ft 4.07 ft 4.5 sec 4.8 sec 0.6 sec 2400 sec
10:00 125 ft 3.84 ft 5.3 sec 4.8 sec 0.6 sec 2400 sec
11:00 125 ft 3.81 ft 5.0 sec 4.6 sec 0.6 sec 2400 sec
12:00 125 ft 3.54 ft 4.8 sec 4.5 sec 0.6 sec 2400 sec
13:00 125 ft 3.81 ft 12.9 sec 4.9 sec 0.6 sec 2400 sec
14:00 125 ft 3.54 ft 13.8 sec 4.8 sec 0.6 sec 2400 sec
15:00 125 ft 3.25 ft 13.8 sec 4.9 sec 0.6 sec 2400 sec
16:00 125 ft 3.05 ft 13.8 sec 5.3 sec 0.6 sec 2400 sec
17:00 125 ft 3.05 ft 13.8 sec 5.7 sec 0.6 sec 2400 sec
18:00 125 ft 2.76 ft 12.9 sec 5.7 sec 0.6 sec 2400 sec
19:00 125 ft 2.79 ft 14.8 sec 5.8 sec 0.6 sec 2400 sec
20:00 125 ft 2.85 ft 13.8 sec 5.3 sec 0.6 sec 2400 sec
21:00 125 ft 3.28 ft 13.8 sec 5.0 sec 0.6 sec 2400 sec
22:00 125 ft 3.22 ft 14.8 sec 4.6 sec 0.6 sec 2400 sec
23:00 125 ft 3.81 ft 14.8 sec 4.5 sec 0.6 sec 2400 sec
00:00 125 ft 4.56 ft 14.8 sec 5.2 sec 0.6 sec 2400 sec
01:00 125 ft 4.56 ft 14.8 sec 5.1 sec 0.6 sec 2400 sec
02:00 125 ft 4.63 ft 14.8 sec 4.9 sec 0.6 sec 2400 sec
03:00 125 ft 4.95 ft 14.8 sec 5.0 sec 0.6 sec 2400 sec